Regional Weather Roundup
Issued by NWS

Home | Current Version | Previous Version | Text Only | Print | Product List | Glossary On
Versions: 1 2 3 4 5 6 7 8 9 10 11 12 13 14 15 16 17 18 19 20 21 22 23 24 25 26 27
000
ASUS45 KBOU 202207
RWRCO

WEATHER ROUNDUP FOR COLORADO
NATIONAL WEATHER SERVICE DENVER/BOULDER CO
400 PM MDT FRI OCT 20 2017

NOTE: "FAIR" INDICATES FEW OR NO CLOUDS BELOW 12000 FEET WITH NO
SIGNIFICANT WEATHER AND/OR OBSTRUCTIONS TO VISIBILITY.

COZ001>005-013-030-031-202300-
...NORTHWEST COLORADO...

CITY           SKY/WX    TMP DP  RH WIND       PRES   REMARKS
CRAIG          PTSUNNY   69  21  16 SW21G33   29.63S
HAYDEN         PTSUNNY   64  23  21 SW22G30   29.66F
MEEKER         PTSUNNY   66  27  23 SW18G26   29.66S
RABBIT EARS PA FAIR      48  25  40 SW10G21   29.86F
STEAMBOAT SPGS FAIR      65  25  21 SW14G21   29.66F
WALDEN         NOT AVBL
$$

COZ006>008-011-202300-
...WEST CENTRAL VALLEYS...

CITY           SKY/WX    TMP DP  RH WIND       PRES   REMARKS
GRAND JUNCTION PTSUNNY   74  28  18 S22G28    29.60F
MONTROSE       FAIR      70  21  15 SW23G37   29.72F
EAGLE          FAIR      66  25  21 SW18G38   29.70F
RIFLE          PTSUNNY   71  23  16 SW18G26   29.64F
DELTA          FAIR      77  23  13 SW17G37   29.66F
NUCLA          FAIR      70  21  16 S18G30    29.76F
$$

COZ017>023-064>068-202300-
...SOUTHWEST COLORADO...

CITY           SKY/WX    TMP DP  RH WIND       PRES   REMARKS
DURANGO        FAIR      66  27  23 SW16G23   29.85F
CORTEZ         FAIR      73  23  15 SW21G31   29.78F
PAGOSA SPRINGS PTSUNNY   64  22  20 SW17      29.92F
TELLURIDE      FAIR      56  21  25 S21G31    29.92F
WOLF CREEK PAS FAIR      37  27  65 SW29G47   30.09R
$$

COZ009-010-012-014-032>034-037-058>063-202300-
...CENTRAL COLORADO...

CITY           SKY/WX    TMP DP  RH WIND       PRES   REMARKS
ASPEN          FAIR      63  25  23 SE10      29.76F
BUENA VISTA    FAIR      65  12  12 S8G33     29.77F
COPPER MTN     FAIR      45  18  33 W9G26     30.00R
BERTHOUD PASS  FAIR      37  30  75 SW14G24   30.00F
COTTONWOOD PAS FAIR      61  10  13 SW13G28   29.88S
GUNNISON       FAIR      64  21  19 W18G31    29.77F
KREMMLING      FAIR      70  23  17 SW13G24   29.72F
LEADVILLE      FAIR      51  14  22 W14G21    29.87F
MONARCH PASS   FAIR      45  19  36 W35G44    30.10S
SALIDA         FAIR      69  20  15 W16G23    29.83S
SUNLIGHT       FAIR      45  25  45 SW18G35   29.93F
WILKERSON PASS FAIR      50  12  22 SW18G33   29.96F
$$

COZ069>075-202300-
...SAN LUIS VALLEY/SANGRE DE CRISTO MOUNTAINS...

CITY           SKY/WX    TMP DP  RH WIND       PRES   REMARKS
ALAMOSA        FAIR      64  25  22 SW22G29   29.87S
DEL NORTE      FAIR      61  26  26 SW29G36   29.88S
LA VETA PASS   FAIR      52  25  35 S39G63    30.02R
SAGUACHE       FAIR      64  23  20 W24G30    29.81F
$$

COZ035-036-038>040-202300-
...NORTHERN COLORADO FRONT RANGE...

CITY           SKY/WX    TMP DP  RH WIND       PRES   REMARKS
DENVER INTL AP PTSUNNY   76  27  16 S8        29.56F
DMNS CITY PARK   N/A     77  27  16 NE2G12    29.53S
AURORA         PTSUNNY   75  28  17 S13       29.57F
FRONT RANGE AP NOT AVBL
ERIE MUNI ARPT PTSUNNY   76  30  18 CALM      29.59S
BOULDER MUN AP FAIR      77  32  19 NE6       29.55F
CENTENNIAL     PTSUNNY   76  24  14 SW18G25   29.57F
BROOMFIELD     PTSUNNY   75  28  17 CALM      29.58F
FORT COLLINS   FAIR      77  35  21 S9        29.55F
LONGMONT       FAIR      79  31  17 SE3       29.56S
$$

COZ041-046-047-076>085-087-088-202300-
...PIKES PEAK/PALMER DIVIDE AND SOUTHERN FOOTHILLS...

CITY           SKY/WX    TMP DP  RH WIND       PRES   REMARKS
COLO. SPRINGS  PTSUNNY   74  27  17 SW20G35   29.67R
A. F. ACADEMY  FAIR      72  23  16 SW15G21   29.67F
SCHRIEVER AFB  FAIR      71  24  16 SW16      29.67F
CHEYENNE MTN   FAIR      67  24  19 S9        29.66R
ELLICOTT         N/A    N/A N/A N/A SW13G25   29.66S
FALCON         FAIR      68  24  19 SW21G28   29.71S
FORT CARSON    FAIR      75  26  16 S14       29.64S
LIMON          FAIR      76  26  15 S24G30    29.60S
MONUMENT HILL  PTSUNNY   68  28  22 SW12G17   29.71F
CANON CITY     FAIR      79  28  15 SW6       29.61F
WALSENBURG     FAIR      72  27  18 SW24G30   29.70S
TRINIDAD       FAIR      73  29  19 W21G31    29.71S
$$

COZ042>045-048>051-090-091-202300-
...NORTHEAST COLORADO...

CITY           SKY/WX    TMP DP  RH WIND       PRES   REMARKS
GREELEY ARPT   FAIR      78  33  19 S9        29.54F
AKRON          FAIR      76  31  19 SE13      29.56F
BURLINGTON     FAIR      79  38  22 S17G32    29.57S
WRAY           NOT AVBL
YUMA           NOT AVBL
STERLING       FAIR      79  34  19 S10       29.51S
HOLYOKE        FAIR      79  37  22 SE9       29.53F
FORT MORGAN    FAIR      79  26  14 SE12      29.54F
$$

COZ086-089-092>099-202300-
...SOUTHEAST COLORADO...

CITY           SKY/WX    TMP DP  RH WIND       PRES   REMARKS
PUEBLO         FAIR      81  29  15 SW17      29.57F
LA JUNTA       FAIR      84  29  13 SW18G25   29.58F
LAMAR          FAIR      85  35  16 SW13G23   29.55S
SPRINGFIELD      N/A     80  34  19 SW21G33   29.64
$$




USA.gov is the U.S. government's official web portal to all federal, state and local government web resources and services.